Powrót do katalogu

SL-12 DEB

LostHEO
NORAD 35084·DEBRIS·🇷🇺 Russia

Wystrzelony Apr 4, 1991 z Baikonur Cosmodrome

Loading…

Następne Przeloty (najbliższe 24 godziny)

TLE

NieaktualneSource: Space-Track

Epoka: Jul 8, 2014, 23:05 UTC

1 35084U 91025AE  14189.96226403 +.00000003 +00000-0 +10000-3 0  9999
2 35084 074.1425 023.0544 5034394 070.9529 336.9925 04.44184140083179

Śledź SL-12 DEB w czasie rzeczywistym z AllMySat

Download on the App Store